Find Calsphere IV

NORAD ID: 2826 Int'l Des: 1967-053 Owner: NRL Country: US operational
LEOCIRCULAR

Current View

Loading 3D Globe...

About Calsphere IV

Description loading...

Upcoming Passes

Passes for default location (London). Set your location on the main map for personalized predictions.

Altitude History

Loading altitude history...

Two-Line Element Set

1 02826U 67053A 26146.24976348 .00009067 00000-0 12830-2 0 9999
2 02826 69.9161 92.0512 0001297 261.1267 98.9734 14.77352505 62990
Epoch: May 26, 2026 • Age: 8 hours

Current Status

Altitude 642.3 km
Velocity 7.54 km/s
Sub-Earth Point -11.80°S, 8.23°W
Type other

Most Searched